Temp
-19 -19 -19 -19 -18 -18 -18 -18 -18 -18 -18 -17 -17 -17 -16 -16 -16 -15 -15 -15 -15 -15 -15 -15 -15 -15 -15 -15 -15 -15 -15 -15 -15 -16 -16 -16 -16 -16 -16 -16 -17 -17 -17 -17 -17 -17 -17 -17 -17 -17 -18 -18 -18 -18
-19 -19 -19 -19 -19 -18 -19 -18 -18 -18 -18 -18 -17 -17 -16 -16 -16 -16 -16 -15 -15 -15 -15 -15 -15 -15 -15 -15 -15 -15 -15 -15 -16 -16 -16 -16 -16 -16 -16 -16 -17 -17 -17 -18 -18 -18 -18 -17 -17 -18 -18 -18 -18 -19
-19 -19 -19 -19 -19 -19 -18 -18 -18 -18 -18 -18 -18 -17 -17 -16 -16 -16 -16 -16 -16 -15 -15 -15 -15 -15 -15 -15 -15 -15 -16 -16 -16 -16 -16 -16 -16 -16 -17 -17 -17 -18 -18 -18 -18 -18 -18 -18 -18 -18 -19 -19 -19 -20
-19 -19 -19 -19 -19 -19 -19 -19 -18 -18 -18 -18 -18 -18 -17 -17 -17 -16 -16 -16 -16 -16 -15 -15 -15 -15 -15 -16 -16 -16 -16 -16 -16 -16 -16 -16 -17 -17 -17 -17 -17 -19 -18 -18 -18 -19 -18 -19 -19 -19 -19 -19 -19 -20
-19 -19 -19 -19 -19 -19 -19 -19 -19 -19 -19 -18 -18 -18 -18 -17 -17 -17 -17 -16 -16 -16 -16 -16 -16 -16 -16 -16 -16 -16 -17 -17 -17 -17 -17 -17 -17 -18 -17 -17 -18 -19 -19 -18 -18 -18 -18 -18 -19 -19 -20 -20 -20 -20
-20 -19 -19 -19 -19 -19 -19 -19 -19 -18 -19 -19 -19 -19 -18 -18 -18 -18 -17 -17 -17 -17 -16 -16 -16 -16 -16 -16 -17 -17 -17 -18 -17 -17 -17 -17 -18 -18 -17 -17 -18 -19 -19 -19 -19 -18 -19 -19 -19 -19 -20 -20 -20 -21
-20 -20 -20 -19 -19 -19 -19 -19 -19 -19 -19 -19 -19 -19 -19 -18 -18 -18 -18 -18 -18 -18 -18 -17 -17 -17 -17 -17 -17 -18 -18 -18 -18 -18 -18 -18 -19 -19 -18 -18 -19 -19 -19 -19 -19 -19 -19 -19 -19 -19 -20 -20 -21 -22
-21 -20 -20 -19 -19 -19 -19 -19 -19 -19 -19 -19 -19 -19 -19 -19 -19 -18 -18 -18 -19 -19 -18 -17 -17 -17 -18 -18 -18 -18 -18 -18 -18 -18 -18 -18 -18 -19 -18 -19 -19 -19 -19 -19 -19 -19 -19 -20 -20 -20 -21 -22 -22 -23
-23 -22 -21 -20 -19 -19 -19 -19 -19 -19 -19 -19 -20 -20 -19 -19 -19 -19 -19 -19 -19 -19 -18 -18 -18 -18 -18 -18 -19 -19 -19 -19 -19 -18 -19 -19 -18 -19 -19 -20 -20 -19 -19 -19 -20 -20 -20 -21 -21 -22 -22 -23 -23 -24
-23 -23 -22 -21 -20 -19 -19 -19 -19 -19 -19 -20 -20 -19 -19 -19 -19 -19 -20 -19 -19 -19 -18 -18 -18 -18 -18 -19 -19 -19 -19 -19 -18 -19 -19 -18 -18 -19 -20 -20 -20 -20 -20 -20 -20 -21 -21 -22 -22 -23 -24 -24 -24 -25
-23 -23 -22 -22 -21 -21 -20 -20 -19 -19 -19 -19 -19 -19 -19 -19 -20 -20 -20 -20 -19 -19 -18 -18 -18 -18 -19 -19 -19 -19 -19 -19 -19 -19 -19 -19 -19 -20 -20 -20 -20 -20 -20 -21 -21 -22 -22 -23 -23 -24 -24 -24 -25 -25
-24 -23 -23 -22 -22 -21 -21 -20 -20 -19 -19 -19 -19 -20 -20 -19 -20 -20 -20 -20 -19 -19 -18 -18 -19 -19 -19 -19 -20 -20 -20 -20 -19 -19 -19 -19 -20 -21 -21 -21 -21 -21 -22 -22 -22 -23 -23 -24 -24 -24 -25 -25 -26 -27
-25 -24 -23 -23 -23 -22 -21 -21 -21 -20 -20 -20 -20 -20 -20 -19 -20 -20 -20 -19 -19 -19 -19 -19 -19 -20 -20 -20 -20 -21 -20 -20 -20 -20 -19 -20 -21 -21 -21 -21 -22 -22 -22 -23 -23 -24 -24 -24 -25 -26 -26 -27 -27 -28
-25 -25 -25 -24 -23 -23 -22 -21 -21 -20 -20 -20 -20 -20 -20 -20 -20 -20 -20 -19 -19 -20 -20 -20 -20 -20 -20 -21 -21 -21 -21 -21 -21 -21 -21 -21 -21 -21 -22 -22 -23 -23 -23 -24 -24 -25 -25 -26 -26 -27 -28 -28 -28 -29
-26 -25 -25 -25 -24 -23 -23 -23 -23 -22 -21 -21 -21 -21 -21 -21 -21 -20 -20 -20 -20 -20 -20 -20 -20 -20 -21 -21 -21 -21 -21 -21 -21 -22 -22 -21 -22 -22 -23 -24 -24 -24 -24 -25 -25 -26 -26 -27 -27 -28 -29 -29 -29 -30
-26 -26 -26 -25 -25 -25 -24 -24 -24 -23 -22 -22 -22 -22 -22 -21 -21 -21 -21 -21 -21 -21 -21 -21 -21 -21 -21 -21 -21 -22 -22 -22 -23 -22 -22 -23 -23 -24 -25 -25 -25 -25 -25 -26 -26 -27 -27 -28 -29 -29 -29 -30 -31 -31
-27 -27 -27 -26 -26 -26 -26 -25 -24 -24 -23 -22 -22 -22 -23 -23 -22 -22 -22 -22 -22 -22 -22 -22 -22 -22 -22 -22 -22 -23 -23 -23 -23 -23 -23 -24 -25 -26 -26 -25 -26 -26 -27 -27 -28 -28 -29 -29 -30 -30 -30 -31 -31 -32
-27 -28 -28 -27 -27 -28 -28 -27 -27 -26 -25 -25 -24 -23 -23 -23 -24 -24 -23 -23 -23 -23 -23 -23 -23 -23 -23 -24 -24 -23 -23 -23 -23 -24 -25 -26 -26 -26 -26 -27 -28 -28 -28 -28 -29 -30 -30 -30 -30 -31 -31 -32 -32 -32
-29 -29 -29 -29 -29 -29 -28 -28 -28 -27 -27 -26 -26 -25 -25 -25 -25 -25 -25 -25 -24 -24 -24 -24 -24 -24 -25 -25 -24 -24 -24 -25 -25 -26 -26 -26 -26 -27 -28 -28 -29 -29 -29 -30 -30 -30 -30 -31 -31 -32 -32 -32 -33 -33
-29 -29 -29 -29 -29 -29 -29 -29 -29 -28 -28 -28 -28 -27 -27 -27 -26 -26 -26 -26 -26 -26 -25 -26 -26 -26 -26 -25 -25 -26 -26 -26 -26 -26 -27 -28 -29 -29 -29 -30 -30 -30 -30 -31 -31 -31 -31 -31 -32 -32 -33 -33 -33 -33
-29 -29 -29 -29 -29 -29 -29 -29 -29 -29 -29 -28 -28 -28 -28 -27 -27 -27 -27 -27 -27 -26 -27 -27 -27 -26 -26 -27 -27 -27 -28 -28 -28 -28 -29 -30 -30 -31 -31 -31 -31 -31 -31 -31 -31 -32 -32 -32 -33 -33 -33 -33 -33 -33
-30 -29 -29 -30 -30 -29 -30 -29 -29 -29 -29 -29 -29 -29 -28 -28 -28 -28 -28 -28 -28 -28 -28 -27 -28 -28 -28 -29 -29 -30 -30 -30 -30 -30 -31 -31 -31 -31 -31 -31 -31 -31 -32 -32 -32 -32 -33 -33 -33 -33 -33 -33 -33 -33
-30 -30 -30 -30 -29 -30 -29 -29 -29 -29 -29 -29 -29 -29 -29 -29 -29 -29 -28 -28 -29 -29 -29 -29 -29 -30 -30 -30 -31 -31 -31 -31 -31 -31 -31 -31 -32 -32 -32 -32 -32 -32 -32 -33 -33 -33 -33 -34 -34 -34 -34 -34 -33 -34
-30 -30 -30 -30 -30 -30 -30 -30 -30 -30 -30 -29 -29 -29 -29 -29 -29 -29 -29 -30 -31 -31 -31 -31 -31 -31 -31 -32 -32 -32 -32 -32 -32 -32 -32 -32 -32 -32 -32 -32 -33 -33 -33 -33 -34 -34 -34 -34 -34 -34 -34 -34 -34 -34
-30 -31 -31 -31 -31 -30 -30 -30 -30 -30 -29 -29 -29 -30 -30 -31 -31 -31 -31 -31 -31 -31 -31 -31 -32 -32 -32 -32 -32 -32 -33 -33 -32 -32 -33 -33 -33 -33 -33 -33 -33 -34 -34 -34 -34 -34 -34 -34 -34 -34 -34 -34 -34 -34
-31 -31 -31 -31 -30 -30 -30 -30 -30 -30 -31 -31 -31 -31 -31 -31 -31 -31 -31 -31 -32 -32 -32 -32 -32 -32 -33 -33 -33 -33 -33 -33 -33 -33 -33 -33 -33 -33 -33 -33 -34 -34 -34 -34 -34 -34 -34 -34 -34 -34 -34 -34 -34 -34
-31 -31 -31 -30 -30 -30 -31 -31 -31 -31 -31 -31 -31 -31 -31 -31 -32 -32 -32 -32 -32 -33 -33 -33 -33 -33 -32 -33 -33 -33 -33 -33 -33 -33 -33 -33 -33 -33 -33 -34 -34 -34 -34 -34 -34 -34 -34 -34 -34 -34 -34 -34 -34 -34
-31 -31 -31 -31 -31 -31 -31 -31 -31 -31 -31 -31 -32 -32 -32 -33 -33 -33 -32 -33 -33 -33 -33 -33 -33 -33 -32 -32 -32 -32 -32 -33 -33 -33 -33 -33 -33 -33 -34 -34 -34 -34 -34 -34 -34 -34 -34 -34 -34 -34 -34 -34 -34 -34
-31 -31 -31 -31 -31 -32 -32 -32 -32 -32 -32 -32 -33 -33 -33 -33 -33 -33 -33 -33 -33 -33 -33 -33 -33 -32 -32 -32 -32 -32 -32 -32 -33 -34 -34 -34 -34 -34 -34 -34 -34 -34 -34 -34 -34 -34 -34 -34 -34 -34 -34 -34 -34 -33
-32 -32 -32 -32 -32 -32 -32 -32 -33 -33 -33 -33 -33 -33 -33 -33 -33 -33 -33 -33 -33 -33 -32 -32 -32 -32 -32 -32 -32 -32 -31 -32 -34 -35 -35 -34 -34 -34 -34 -34 -35 -34 -34 -34 -34 -34 -34 -34 -34 -34 -34 -34 -33 -34
-32 -33 -33 -33 -33 -33 -33 -33 -33 -33 -33 -33 -33 -33 -33 -33 -33 -33 -33 -33 -32 -32 -32 -32 -32 -32 -32 -32 -32 -32 -32 -33 -34 -35 -35 -35 -34 -35 -35 -35 -35 -35 -34 -34 -34 -34 -34 -34 -34 -34 -34 -34 -34 -34
-33 -33 -33 -33 -33 -33 -33 -33 -33 -33 -33 -33 -33 -33 -33 -33 -33 -32 -32 -32 -32 -32 -32 -32 -32 -32 -32 -32 -32 -33 -33 -34 -35 -35 -35 -35 -35 -35 -35 -35 -35 -35 -35 -34 -34 -34 -34 -34 -34 -34 -34 -34 -34 -34
-33 -33 -33 -33 -33 -33 -33 -33 -33 -33 -33 -33 -33 -33 -33 -33 -33 -33 -32 -32 -32 -32 -32 -32 -32 -32 -33 -33 -33 -33 -33 -34 -34 -35 -35 -35 -35 -36 -36 -36 -36 -36 -36 -36 -36 -35 -35 -35 -35 -35 -35 -35 -35 -35
Height
5606 5614 5622 5630 5638 5645 5652 5659 5667 5673 5679 5685 5690 5696 5702 5708 5713 5718 5723 5727 5731 5735 5739 5742 5745 5747 5749 5751 5753 5754 5755 5755 5755 5755 5755 5754 5753 5752 5749 5746 5742 5738 5730 5724 5720 5717 5710 5706 5703 5699 5696 5690 5684 5678
5600 5608 5616 5623 5631 5639 5647 5654 5661 5667 5673 5680 5685 5690 5696 5701 5706 5712 5716 5720 5724 5728 5732 5735 5738 5740 5743 5744 5746 5746 5748 5747 5747 5746 5746 5745 5744 5742 5739 5736 5734 5731 5723 5717 5711 5712 5701 5697 5693 5689 5682 5677 5670 5663
5595 5603 5611 5617 5624 5632 5641 5648 5655 5661 5667 5673 5679 5685 5689 5694 5699 5704 5709 5713 5716 5720 5724 5728 5730 5733 5735 5736 5737 5739 5738 5739 5738 5737 5736 5735 5733 5731 5729 5725 5722 5719 5713 5709 5703 5702 5694 5690 5685 5680 5674 5666 5659 5651
5589 5597 5605 5611 5619 5626 5634 5641 5648 5655 5661 5667 5673 5678 5683 5688 5693 5696 5700 5704 5708 5712 5715 5719 5721 5724 5725 5727 5728 5728 5729 5729 5728 5728 5726 5724 5722 5720 5717 5713 5713 5709 5701 5696 5694 5691 5685 5681 5674 5668 5661 5653 5645 5635
5581 5590 5598 5605 5612 5620 5627 5634 5641 5648 5654 5660 5665 5671 5677 5681 5686 5690 5693 5696 5700 5704 5707 5709 5711 5714 5716 5717 5718 5718 5719 5719 5719 5718 5716 5714 5712 5708 5704 5702 5702 5696 5691 5686 5682 5678 5673 5666 5660 5653 5647 5639 5630 5621
5572 5581 5590 5597 5605 5612 5620 5628 5635 5640 5647 5653 5658 5664 5669 5674 5678 5682 5685 5689 5692 5694 5697 5699 5702 5704 5705 5707 5708 5708 5709 5708 5708 5706 5705 5702 5701 5696 5690 5689 5691 5684 5681 5675 5671 5666 5659 5652 5646 5638 5631 5624 5615 5605
5564 5573 5582 5590 5597 5605 5612 5620 5627 5634 5640 5645 5651 5655 5660 5665 5670 5673 5678 5682 5682 5684 5688 5690 5692 5696 5697 5697 5697 5696 5697 5697 5696 5694 5693 5691 5688 5682 5679 5679 5676 5670 5666 5661 5656 5650 5644 5637 5630 5624 5617 5608 5599 5591
5555 5564 5573 5581 5590 5597 5605 5612 5619 5626 5632 5637 5642 5646 5651 5655 5659 5663 5667 5670 5672 5675 5677 5678 5682 5687 5688 5686 5685 5685 5685 5685 5684 5682 5681 5679 5675 5671 5667 5668 5662 5658 5653 5648 5643 5637 5631 5624 5616 5609 5601 5593 5586 5575
5549 5556 5563 5572 5581 5589 5597 5605 5612 5618 5624 5627 5631 5636 5640 5645 5651 5655 5656 5659 5661 5665 5665 5669 5673 5674 5676 5675 5675 5675 5674 5673 5671 5669 5668 5665 5660 5657 5657 5653 5648 5643 5638 5633 5628 5621 5615 5609 5602 5594 5587 5578 5569 5561
5541 5548 5556 5563 5571 5580 5589 5597 5604 5610 5616 5619 5623 5625 5630 5637 5641 5643 5643 5646 5649 5652 5655 5659 5661 5661 5665 5663 5662 5662 5660 5659 5658 5658 5655 5652 5649 5648 5643 5640 5636 5629 5624 5619 5613 5608 5602 5595 5588 5579 5571 5562 5552 5543
5532 5539 5547 5556 5563 5571 5579 5587 5594 5601 5605 5608 5610 5617 5623 5626 5629 5630 5632 5633 5636 5641 5644 5646 5649 5650 5652 5651 5649 5646 5644 5644 5644 5645 5641 5640 5639 5634 5629 5625 5620 5616 5611 5605 5599 5593 5586 5579 5572 5564 5555 5546 5535 5524
5521 5530 5538 5547 5554 5561 5569 5576 5584 5590 5596 5601 5606 5610 5613 5616 5618 5617 5617 5621 5625 5627 5631 5634 5635 5636 5636 5636 5634 5633 5631 5629 5628 5629 5626 5625 5623 5618 5613 5608 5604 5600 5594 5588 5581 5575 5569 5562 5554 5546 5537 5528 5519 5510
5515 5520 5527 5536 5545 5552 5559 5566 5574 5581 5585 5590 5595 5596 5600 5601 5601 5602 5604 5608 5613 5617 5620 5622 5623 5624 5622 5623 5621 5620 5618 5616 5615 5613 5611 5611 5606 5601 5597 5592 5587 5581 5577 5571 5566 5560 5553 5546 5536 5527 5520 5510 5503 5496
5509 5514 5518 5524 5534 5542 5548 5556 5561 5568 5574 5577 5580 5584 5587 5586 5587 5590 5594 5597 5601 5603 5606 5608 5609 5610 5608 5608 5606 5606 5603 5601 5600 5600 5599 5595 5590 5586 5581 5577 5571 5566 5562 5557 5551 5544 5537 5530 5523 5513 5504 5496 5489 5481
5503 5508 5512 5517 5523 5531 5538 5545 5550 5555 5558 5564 5569 5571 5573 5575 5578 5581 5583 5587 5589 5591 5593 5594 5595 5596 5595 5592 5592 5590 5588 5586 5586 5585 5582 5579 5575 5570 5566 5561 5556 5551 5547 5542 5535 5529 5522 5515 5508 5502 5492 5484 5475 5467
5495 5500 5505 5510 5515 5521 5526 5532 5537 5543 5548 5551 5555 5558 5561 5565 5567 5570 5573 5575 5576 5578 5579 5580 5580 5580 5579 5577 5578 5576 5574 5573 5570 5568 5566 5562 5559 5556 5551 5545 5540 5536 5532 5527 5520 5514 5507 5500 5494 5489 5481 5471 5462 5454
5485 5492 5497 5502 5506 5511 5516 5521 5527 5532 5535 5542 5545 5547 5549 5553 5555 5558 5561 5561 5562 5564 5566 5566 5566 5564 5564 5562 5562 5560 5558 5558 5556 5554 5551 5549 5546 5539 5534 5530 5526 5520 5516 5511 5505 5498 5493 5487 5481 5473 5467 5460 5450 5442
5478 5484 5488 5493 5498 5504 5508 5513 5517 5522 5527 5530 5532 5534 5536 5539 5542 5545 5546 5548 5550 5550 5551 5553 5552 5550 5549 5544 5542 5544 5545 5544 5543 5541 5538 5533 5527 5523 5519 5516 5510 5505 5501 5496 5490 5485 5479 5473 5466 5459 5453 5447 5441 5434
5471 5477 5483 5488 5493 5498 5503 5507 5511 5514 5517 5520 5522 5524 5527 5530 5532 5532 5534 5535 5537 5538 5540 5541 5538 5537 5532 5529 5531 5532 5531 5529 5527 5525 5521 5516 5511 5508 5504 5499 5495 5490 5486 5481 5475 5470 5464 5458 5452 5446 5440 5434 5430 5424
5468 5474 5479 5484 5489 5493 5497 5501 5505 5508 5511 5514 5516 5518 5519 5521 5522 5523 5524 5524 5525 5526 5528 5527 5524 5518 5519 5521 5520 5517 5515 5512 5511 5509 5506 5501 5495 5491 5487 5483 5480 5476 5472 5467 5461 5455 5450 5445 5438 5433 5428 5423 5419 5415
5465 5471 5477 5481 5484 5488 5492 5495 5498 5502 5504 5507 5509 5511 5513 5513 5514 5515 5516 5516 5517 5519 5516 5512 5510 5510 5509 5506 5503 5500 5498 5496 5495 5492 5490 5487 5482 5478 5474 5468 5465 5462 5457 5452 5447 5442 5436 5430 5426 5421 5417 5412 5408 5403
5464 5469 5473 5477 5480 5484 5487 5490 5494 5496 5499 5501 5502 5503 5504 5505 5505 5505 5504 5506 5505 5502 5500 5500 5499 5496 5493 5490 5488 5486 5484 5482 5480 5477 5474 5472 5469 5465 5461 5454 5450 5446 5441 5436 5431 5428 5422 5417 5414 5410 5405 5401 5397 5392
5462 5466 5469 5472 5476 5479 5483 5486 5489 5490 5492 5493 5494 5495 5495 5495 5495 5494 5495 5494 5489 5487 5488 5488 5485 5483 5481 5477 5475 5472 5470 5468 5465 5464 5461 5458 5453 5449 5445 5441 5434 5430 5426 5422 5417 5414 5410 5406 5402 5398 5394 5390 5386 5382
5458 5462 5466 5469 5473 5476 5479 5481 5483 5485 5487 5487 5487 5487 5487 5486 5485 5484 5484 5481 5477 5476 5475 5475 5473 5471 5469 5465 5462 5459 5457 5455 5453 5451 5446 5441 5438 5435 5429 5425 5420 5416 5412 5409 5406 5402 5399 5396 5393 5389 5385 5381 5377 5374
5457 5460 5464 5466 5469 5472 5473 5475 5477 5478 5478 5477 5477 5475 5475 5474 5474 5474 5473 5469 5468 5466 5464 5463 5462 5459 5457 5454 5452 5448 5445 5442 5440 5438 5433 5425 5421 5418 5414 5409 5406 5403 5399 5397 5395 5392 5389 5386 5383 5379 5375 5371 5368 5365
5454 5457 5460 5461 5464 5466 5466 5468 5468 5468 5468 5468 5468 5467 5466 5466 5465 5464 5462 5460 5458 5457 5455 5453 5451 5449 5446 5442 5439 5436 5431 5426 5423 5421 5418 5412 5406 5402 5398 5395 5393 5391 5388 5386 5383 5381 5378 5376 5373 5369 5366 5362 5358 5355
5450 5453 5455 5457 5458 5459 5459 5460 5459 5459 5459 5459 5459 5457 5456 5455 5454 5453 5452 5450 5448 5446 5444 5441 5439 5436 5432 5429 5425 5420 5415 5410 5405 5402 5400 5396 5393 5389 5385 5382 5380 5379 5376 5374 5372 5370 5368 5365 5362 5359 5355 5351 5347 5343
5446 5449 5451 5451 5451 5452 5451 5452 5451 5451 5450 5449 5448 5446 5445 5445 5443 5442 5440 5438 5436 5433 5430 5426 5422 5418 5414 5410 5406 5401 5397 5392 5388 5384 5383 5381 5378 5375 5372 5369 5368 5366 5365 5363 5361 5359 5357 5353 5350 5347 5343 5339 5335 5330
5442 5443 5443 5444 5444 5444 5443 5443 5442 5442 5441 5439 5438 5436 5435 5433 5431 5429 5427 5425 5423 5419 5415 5411 5407 5403 5398 5393 5387 5382 5376 5370 5364 5363 5363 5363 5362 5361 5359 5357 5356 5355 5354 5352 5350 5347 5344 5341 5338 5334 5330 5327 5323 5318
5437 5437 5437 5436 5436 5435 5435 5434 5433 5432 5431 5430 5428 5426 5423 5421 5419 5417 5415 5412 5408 5404 5400 5396 5393 5389 5384 5380 5374 5366 5358 5348 5340 5344 5347 5348 5348 5347 5346 5345 5345 5343 5342 5340 5337 5334 5331 5328 5324 5321 5317 5314 5309 5305
5431 5430 5430 5429 5428 5427 5426 5425 5424 5422 5421 5419 5416 5413 5410 5407 5405 5403 5401 5397 5393 5390 5386 5382 5378 5375 5370 5366 5360 5354 5347 5341 5336 5335 5336 5336 5336 5335 5334 5333 5332 5331 5329 5327 5325 5322 5319 5315 5312 5308 5304 5300 5295 5291
5423 5422 5421 5420 5419 5417 5415 5414 5412 5411 5409 5406 5404 5401 5398 5395 5392 5391 5387 5383 5379 5376 5372 5368 5364 5360 5356 5351 5347 5342 5338 5333 5329 5327 5326 5325 5324 5323 5322 5320 5319 5317 5315 5313 5310 5308 5305 5302 5298 5294 5291 5287 5283 5278
5414 5412 5410 5409 5407 5405 5403 5401 5399 5399 5398 5395 5392 5389 5386 5382 5379 5377 5373 5370 5366 5362 5358 5353 5349 5345 5341 5336 5332 5328 5325 5322 5319 5316 5314 5312 5311 5309 5308 5306 5305 5303 5301 5298 5296 5293 5290 5287 5284 5280 5276 5273 5269 5265
Wind_Speed
38 35 42 44 44 41 40 40 38 37 36 34 34 35 35 34 34 33 32 31 31 30 30 30 30 30 29 29 29 28 29 30 32 32 31 32 32 33 34 36 40 47 52 47 43 38 38 37 39 43 44 46 48 50
44 38 37 37 43 45 44 41 40 38 38 36 35 35 36 36 35 34 33 33 33 33 33 33 33 33 33 33 33 34 34 35 36 35 35 36 36 36 37 42 44 46 44 42 42 36 41 42 44 45 50 52 54 56
48 42 40 35 40 45 42 43 42 41 39 39 37 36 36 37 37 35 34 35 35 34 34 34 35 35 36 37 37 37 38 38 37 36 37 39 39 40 40 46 49 46 42 39 41 40 44 44 45 50 52 56 57 61
53 48 48 42 45 47 45 43 42 43 41 40 41 39 38 37 36 36 37 36 36 37 38 37 37 37 38 38 39 39 39 39 38 38 40 40 41 42 45 50 51 43 43 42 43 44 46 48 51 53 56 59 62 67
59 54 52 45 46 47 45 46 43 43 44 42 42 42 41 40 39 38 38 37 38 39 39 38 38 38 39 40 40 39 39 38 39 41 42 43 42 44 50 54 51 40 43 46 47 49 53 55 57 58 59 62 66 71
59 58 54 48 46 47 44 43 42 40 43 44 41 42 43 42 42 40 39 39 39 40 40 40 39 40 41 40 39 39 40 40 41 43 44 45 44 49 56 57 45 43 46 49 51 55 58 61 61 62 64 68 72 74
59 59 55 49 46 46 47 49 49 45 42 43 43 42 43 43 44 43 44 41 41 41 41 42 41 40 41 42 42 42 41 41 43 45 46 47 48 55 59 54 46 49 51 54 56 58 61 61 63 66 68 71 73 73
53 57 59 53 51 46 43 42 41 46 49 46 43 43 43 43 45 45 44 43 43 43 44 46 44 42 41 42 43 43 43 43 44 46 49 51 57 59 56 47 50 51 53 55 57 59 60 62 64 67 69 70 71 72
46 45 53 61 58 54 48 46 41 40 39 42 46 42 43 43 43 43 46 46 45 46 47 47 46 45 45 44 41 40 42 46 51 53 53 52 52 51 49 51 52 54 56 57 58 60 62 63 65 66 67 70 71 70
49 46 45 49 55 56 53 50 45 43 42 43 44 46 43 41 43 46 47 48 47 45 46 46 46 48 47 46 45 46 48 51 53 51 50 51 51 49 50 52 54 55 56 57 58 58 60 62 63 65 67 68 70 73
57 52 48 47 49 52 53 50 45 47 46 47 55 50 47 46 42 42 47 50 50 48 47 48 50 52 48 48 51 54 54 52 49 49 50 51 50 50 52 54 56 56 56 56 57 59 61 62 64 65 67 70 73 74
44 54 56 49 46 46 49 50 50 51 49 48 46 49 52 50 51 55 55 52 51 52 49 44 43 46 47 49 48 46 48 51 53 53 55 57 56 56 57 57 57 55 56 58 60 62 62 64 66 68 70 71 72 72
28 37 50 57 50 48 50 53 52 53 47 49 52 51 53 55 56 59 58 56 52 50 49 46 45 46 46 45 48 50 53 54 55 59 60 59 59 58 58 58 56 56 58 61 61 61 63 65 67 68 69 70 71 69
28 29 35 46 57 51 50 52 56 58 57 55 53 55 55 56 55 56 55 56 56 53 51 50 51 51 51 52 55 57 58 58 61 61 61 59 59 58 56 54 56 58 59 60 61 63 64 65 66 66 66 68 68 66
32 31 33 35 43 53 50 49 50 48 52 54 54 53 57 55 55 57 57 57 54 54 55 58 58 53 55 60 61 61 61 64 63 61 60 58 56 54 54 55 57 60 60 61 62 63 64 65 65 62 63 64 63 61
34 33 34 36 37 42 48 52 50 50 53 51 50 46 46 48 52 58 59 56 57 58 62 63 59 58 59 60 60 62 63 58 53 53 54 53 52 53 54 56 59 61 60 61 61 62 63 62 60 60 60 60 57 56
37 33 33 35 37 39 39 45 51 52 51 57 59 53 47 50 51 55 59 56 52 51 51 52 53 55 56 57 56 52 49 49 52 53 53 53 52 53 57 59 59 59 59 60 60 59 57 58 59 59 56 52 51 49
36 30 31 32 34 36 37 34 38 45 46 46 47 51 56 51 43 41 43 45 47 47 46 44 45 44 45 45 47 50 52 54 54 53 51 51 55 58 59 57 56 56 58 57 54 54 56 57 57 54 50 47 42 43
32 30 28 28 32 34 31 27 27 29 33 38 43 44 45 45 45 43 42 42 43 43 44 45 47 46 47 51 54 55 54 53 53 53 54 56 57 56 54 54 54 54 54 52 53 55 55 55 50 47 45 43 41 43
34 29 28 24 24 29 35 36 33 31 30 29 30 30 31 34 36 37 38 40 41 42 42 43 45 49 52 54 53 52 52 52 52 53 53 51 51 51 51 51 51 52 52 53 53 54 53 49 47 44 42 41 42 43
34 29 26 24 24 24 26 28 31 32 31 31 31 32 34 35 36 38 39 40 41 42 43 45 48 49 49 49 49 50 49 50 50 49 48 47 47 46 47 49 51 52 52 52 51 50 49 47 43 40 40 42 43 42
32 26 23 24 18 24 28 24 19 20 22 22 23 24 26 28 29 31 32 33 34 37 41 43 43 43 43 42 43 43 43 44 44 45 45 45 46 47 49 51 51 50 50 49 48 45 42 41 39 40 41 40 38 36
38 36 34 31 34 34 33 30 25 25 25 25 27 28 30 32 36 39 40 42 38 41 43 41 39 38 38 39 39 40 41 42 43 43 44 46 48 50 51 51 51 49 46 44 41 37 37 37 36 33 33 33 31 29
30 27 27 29 29 26 24 23 24 24 26 29 32 35 38 41 43 43 41 33 33 35 35 34 34 34 34 35 37 40 41 43 45 46 49 52 53 53 54 51 48 45 43 38 34 33 33 33 34 34 32 30 27 25
19 15 15 15 14 15 17 19 23 26 31 36 36 31 26 26 26 26 27 30 32 33 34 34 34 34 35 38 40 43 46 48 49 50 52 56 58 55 50 47 43 41 36 33 32 32 32 31 32 33 33 31 29 31
14 13 13 16 18 20 22 24 24 22 22 23 24 26 28 30 31 32 32 33 33 32 32 32 34 37 40 43 46 49 51 55 56 56 54 55 51 47 45 40 38 36 36 35 34 34 34 35 36 36 36 36 37 38
14 16 18 21 22 23 20 21 23 23 27 30 31 32 32 30 28 28 28 30 31 33 35 38 41 44 46 49 52 55 57 58 58 56 51 46 44 44 42 37 36 37 36 34 33 32 33 34 37 38 39 40 41 42
16 16 16 17 18 20 23 26 28 29 28 28 28 28 28 28 30 32 33 34 36 39 42 45 48 52 54 54 53 54 56 57 58 55 51 47 45 43 39 35 34 34 34 34 34 34 37 39 40 40 40 40 40 41
19 19 20 21 23 25 26 27 28 28 29 29 29 29 32 34 36 37 38 41 43 47 50 50 49 49 51 52 53 52 56 59 57 51 46 45 44 39 36 33 33 34 35 36 38 40 42 42 41 40 40 40 42 42
23 23 23 25 26 26 26 28 27 27 27 28 30 33 36 39 41 42 43 44 44 45 45 45 45 45 45 45 46 50 52 49 38 34 35 36 36 35 33 32 34 37 38 39 41 42 44 43 43 42 43 44 41 41
24 25 25 24 24 27 29 30 31 33 34 35 37 38 39 40 39 39 40 41 42 42 43 43 43 42 42 43 43 43 43 36 28 28 31 33 34 34 33 34 36 39 41 42 43 44 43 43 43 43 44 43 42 44
26 27 29 31 33 34 34 33 32 31 33 35 37 38 38 38 39 38 38 39 40 41 42 43 43 43 43 44 44 41 37 33 30 32 35 36 36 35 36 37 38 40 42 43 44 44 44 45 46 46 44 43 44 46
27 29 32 35 36 36 35 36 36 34 30 30 32 34 36 37 37 38 39 41 42 44 45 46 47 47 46 46 45 44 41 38 34 32 34 36 37 37 38 38 39 40 42 45 47 47 48 49 49 48 47 47 47 46
Wind_Direction
204 206 209 211 211 211 210 211 210 210 212 211 210 209 211 213 215 215 215 216 216 217 218 220 224 228 233 239 244 249 255 260 266 270 277 282 286 287 289 294 307 315 315 312 310 311 307 303 305 307 308 307 308 310
211 211 213 216 215 212 213 213 214 213 212 213 213 212 212 215 217 218 218 220 222 224 225 228 232 237 241 244 248 253 259 263 268 274 279 283 286 289 291 296 307 317 312 310 307 313 303 305 305 307 307 309 310 310
215 213 214 214 219 215 215 215 217 217 215 214 216 215 214 217 218 220 222 223 225 228 231 234 239 243 247 251 254 257 260 264 269 274 278 283 287 290 296 302 309 315 308 307 306 311 306 303 301 304 308 309 309 308
212 216 216 215 214 220 219 217 218 218 219 217 218 218 218 219 221 222 224 226 231 234 236 238 241 246 250 253 256 259 262 267 272 276 280 284 287 291 297 304 310 311 305 303 306 307 306 305 305 305 306 306 307 310
208 211 215 216 215 219 228 223 221 220 220 221 220 222 223 223 224 226 228 230 233 237 239 240 244 249 253 255 258 261 265 269 273 276 279 283 286 292 297 304 312 304 303 305 307 306 306 308 309 308 305 305 307 308
209 213 215 217 216 216 221 224 222 220 222 222 222 225 227 228 230 230 233 235 236 239 242 243 246 250 255 258 261 264 266 270 274 278 281 285 287 292 296 303 309 303 303 305 306 306 308 308 308 307 307 307 307 307
207 209 214 211 214 216 219 224 227 227 224 225 225 227 229 231 234 236 237 239 242 244 246 250 250 254 258 260 262 265 269 272 275 278 283 285 287 292 298 302 302 302 303 304 306 307 306 307 307 306 306 306 305 306
213 208 210 211 212 210 213 216 222 227 230 229 227 230 233 234 236 238 241 242 244 247 248 251 253 254 255 260 264 269 272 275 277 281 285 288 289 292 295 298 297 297 299 300 303 304 304 304 304 304 303 304 306 308
226 222 215 212 213 212 216 217 220 223 226 230 227 230 235 238 240 244 246 247 247 249 251 253 256 257 259 262 265 270 275 278 279 282 286 287 291 292 293 294 296 298 299 302 303 303 303 302 301 301 303 304 307 308
224 223 224 223 219 219 223 222 223 228 229 231 228 230 236 243 244 243 246 248 249 251 253 256 257 261 264 265 269 277 282 284 282 279 281 286 289 290 290 292 295 297 299 300 300 298 297 298 301 304 305 307 309 311
224 222 224 223 224 224 224 221 216 218 223 229 233 235 241 241 242 245 247 250 253 254 258 259 259 261 263 267 271 275 276 278 280 280 284 287 289 292 294 295 295 296 297 295 295 298 301 304 305 307 309 310 311 314
219 224 222 225 223 221 225 223 217 219 221 227 233 238 239 240 245 247 246 249 255 253 253 257 263 265 267 266 270 274 279 280 283 286 287 291 294 294 294 294 294 296 297 299 301 303 305 306 308 309 310 312 314 316
222 222 221 224 223 224 222 220 218 219 218 223 231 232 235 242 245 245 249 249 254 254 257 259 261 266 269 266 272 278 279 280 285 287 290 291 291 291 291 292 295 296 299 300 301 304 305 307 309 311 313 314 315 316
229 226 226 221 219 221 221 220 218 216 216 219 222 228 233 233 237 242 248 250 254 253 255 258 264 268 265 265 272 277 278 279 284 287 287 287 286 287 290 292 294 296 297 300 303 305 306 308 310 312 313 314 315 315
232 230 229 225 220 219 219 223 224 226 226 224 225 227 230 235 240 240 244 245 252 257 257 260 263 265 261 261 270 274 275 280 283 283 283 283 284 287 291 294 295 296 300 302 304 305 307 308 311 312 313 313 313 315
234 230 229 228 226 220 216 217 217 221 220 225 226 228 234 241 246 243 239 250 257 256 255 256 255 257 259 266 271 274 275 275 277 279 282 285 289 293 295 294 295 298 300 302 303 304 307 309 311 311 311 312 314 316
233 230 228 225 225 223 222 221 219 221 225 223 223 228 236 237 238 243 245 240 241 246 254 258 261 265 268 269 271 270 272 276 279 283 287 291 294 292 291 294 297 298 300 302 304 307 308 308 309 309 311 313 315 318
230 223 219 219 219 221 221 221 224 227 232 234 235 238 242 246 247 244 246 250 255 259 263 266 268 270 274 275 275 276 279 283 285 289 292 290 289 290 293 295 296 298 300 303 305 304 306 307 308 310 311 312 313 317
212 203 210 210 210 204 209 211 223 228 231 235 240 245 250 253 255 259 261 261 263 264 266 269 274 275 273 272 275 278 282 285 287 287 289 289 290 291 292 294 296 299 301 302 302 304 305 307 308 308 309 308 309 316
193 197 199 202 211 220 226 231 235 235 237 242 244 246 250 254 257 260 262 265 268 270 272 275 275 274 275 278 283 285 285 286 286 286 287 289 291 292 295 297 298 298 299 300 302 302 304 305 305 306 304 304 306 311
187 199 199 205 213 219 223 226 235 242 247 252 257 260 262 264 266 269 272 272 274 276 275 273 276 280 283 282 281 282 282 283 286 288 288 288 290 292 293 294 296 298 299 300 301 302 301 300 301 300 299 300 303 307
201 206 209 205 209 218 219 227 242 247 244 251 259 264 266 269 272 275 277 281 285 284 281 283 282 280 279 279 280 281 282 285 286 286 286 290 293 294 296 297 300 302 303 303 302 303 300 299 299 299 299 301 305 307
203 205 202 212 215 216 222 232 248 258 260 265 269 272 276 278 280 283 285 290 289 285 287 282 279 278 278 281 282 282 284 284 286 290 294 295 296 298 299 302 303 302 302 302 302 301 299 302 305 304 306 308 307 308
177 185 196 203 212 219 224 231 241 251 257 263 269 275 279 281 283 283 281 279 274 275 276 277 277 279 279 279 280 282 286 291 294 296 296 295 297 300 302 302 299 298 299 299 296 297 301 304 306 306 306 306 304 307
202 207 215 227 240 249 255 263 271 277 283 291 290 286 278 273 274 278 279 275 275 276 276 278 280 281 283 285 288 288 289 289 291 294 296 297 300 302 300 298 297 297 296 294 292 296 299 303 306 308 309 305 300 302
208 230 238 247 258 271 279 280 281 278 272 267 272 275 277 279 281 280 276 276 277 278 280 281 282 283 284 285 286 287 288 291 292 293 295 296 297 298 299 297 295 294 294 295 293 295 296 299 302 303 304 302 300 302
239 253 262 266 269 272 270 270 271 272 271 274 278 279 279 279 279 280 281 281 282 282 282 282 283 284 285 285 286 288 289 290 290 291 292 291 292 295 296 294 292 292 292 292 294 296 298 299 300 300 300 299 300 300
238 249 260 265 269 270 275 278 275 274 275 274 275 277 279 280 280 280 281 281 283 287 291 292 292 292 293 294 294 293 292 290 288 286 284 284 287 290 290 288 287 287 289 291 291 295 299 299 299 300 300 300 301 302
261 270 274 276 278 280 277 277 278 279 281 279 278 279 281 283 285 286 286 288 290 290 290 290 293 295 295 296 298 299 298 295 285 278 279 279 279 282 282 279 280 284 288 290 292 296 300 301 300 299 300 301 303 304
267 272 274 276 277 277 278 279 279 281 281 281 282 283 283 284 285 286 288 289 289 289 291 293 294 294 295 298 303 305 309 312 299 276 273 273 274 279 277 274 276 282 286 289 292 295 298 299 299 297 299 302 302 304
263 264 267 271 274 276 278 279 278 279 280 281 282 283 284 286 287 289 290 290 289 291 292 293 294 296 299 302 305 309 313 314 296 277 274 275 275 278 278 276 276 279 283 287 289 291 293 294 297 299 301 301 302 306
267 271 273 273 274 276 278 281 284 281 284 284 283 284 285 287 288 289 288 288 290 293 295 297 299 301 302 302 304 305 306 304 292 277 271 272 274 274 274 275 277 279 282 283 286 289 292 294 298 300 300 299 302 304
279 280 283 284 282 280 279 282 282 277 277 281 284 288 289 289 290 290 291 293 296 298 299 300 301 301 300 299 299 299 299 298 293 283 274 271 270 271 274 276 277 279 281 283 286 289 292 295 297 297 297 299 301 302